| time (UTC) | temp C | wind direction | speed KPH | gust KPH | rain 1hr cm | rain 24hr cm | rain mn cm | humidity % | barometer mb |
| 20260505041517 | 16 | 296 | 3.2 | 6.4 | 0.00 | 0.00 | 0.00 | 67 | 1016.3 |
| 20260505040520 | 17 | 328 | 1.6 | 4.8 | 0.00 | 0.00 | 0.00 | 67 | 1016.4 |
| 20260505035538 | 17 | 303 | 1.6 | 9.7 | 0.00 | 0.00 | 0.00 | 65 | 1016.3 |
| 20260505034518 | 17 | 333 | 1.6 | 4.8 | 0.00 | 0.00 | 0.00 | 65 | 1016.3 |
| 20260505033518 | 17 | 308 | 1.6 | 6.4 | 0.00 | 0.00 | 0.00 | 64 | 1016.2 |
| 20260505032516 | 17 | 266 | 3.2 | 9.7 | 0.00 | 0.00 | 0.00 | 63 | 1016.2 |
| 20260505031516 | 17 | 258 | 3.2 | 17.7 | 0.00 | 0.00 | 0.00 | 62 | 1016.2 |
| 20260505030515 | 18 | 264 | 3.2 | 12.9 | 0.00 | 0.00 | 0.00 | 62 | 1016.2 |
| 20260505025515 | 18 | 269 | 3.2 | 11.3 | 0.00 | 0.00 | 0.00 | 62 | 1016.2 |
| 20260505024515 | 18 | 276 | 3.2 | 11.3 | 0.00 | 0.00 | 0.00 | 62 | 1016.2 |
| 20260505023516 | 18 | 255 | 3.2 | 8.0 | 0.00 | 0.00 | 0.00 | 61 | 1016.1 |
| 20260505022516 | 18 | 256 | 1.6 | 9.7 | 0.00 | 0.00 | 0.00 | 61 | 1016.1 |
| 20260505021516 | 18 | 250 | 3.2 | 17.7 | 0.00 | 0.00 | 0.00 | 61 | 1016.0 |
| 20260505020516 | 19 | 262 | 1.6 | 9.7 | 0.00 | 0.00 | 0.00 | 61 | 1016.0 |
| 20260505015517 | 19 | 252 | 1.6 | 11.3 | 0.00 | 0.00 | 0.00 | 61 | 1015.9 |
| 20260505014537 | 20 | 256 | 1.6 | 8.0 | 0.00 | 0.00 | 0.00 | 60 | 1015.8 |
| 20260505013517 | 20 | 257 | 1.6 | 11.3 | 0.00 | 0.00 | 0.00 | 58 | 1015.7 |
| 20260505012517 | 20 | 257 | 3.2 | 8.0 | 0.00 | 0.00 | 0.00 | 56 | 1015.4 |
| 20260505011517 | 20 | 251 | 3.2 | 9.7 | 0.00 | 0.00 | 0.00 | 53 | 1015.2 |
| 20260505010538 | 20 | 278 | 1.6 | 6.4 | 0.00 | 0.00 | 0.00 | 50 | 1015.1 |
| 20260505005537 | 20 | 286 | 0.0 | 4.8 | 0.00 | 0.00 | 0.00 | 49 | 1015.0 |
| 20260505004558 | 20 | 268 | 1.6 | 4.8 | 0.00 | 0.00 | 0.00 | 49 | 1014.8 |
| 20260505003538 | 20 | 291 | 0.0 | 3.2 | 0.00 | 0.00 | 0.00 | 48 | 1014.8 |
| 20260505002518 | 21 | 274 | 0.0 | 3.2 | 0.00 | 0.00 | 0.00 | 46 | 1014.8 |
| 20260505001518 | 21 | 275 | 0.0 | 4.8 | 0.00 | 0.00 | 0.00 | 45 | 1014.7 |
| 20260505000518 | 22 | 264 | 0.0 | 6.4 | 0.00 | 0.00 | 0.00 | 44 | 1014.6 |
| 20260504235515 | 22 | 272 | 1.6 | 6.4 | 0.00 | 0.00 | 0.00 | 42 | 1014.5 |
| 20260504234515 | 22 | 265 | 1.6 | 8.0 | 0.00 | 0.00 | 0.00 | 41 | 1014.3 |
| 20260504233516 | 23 | 255 | 1.6 | 8.0 | 0.00 | 0.00 | 0.00 | 41 | 1014.2 |
| 20260504232516 | 23 | 234 | 1.6 | 4.8 | 0.00 | 0.00 | 0.00 | 40 | 1014.1 |
| 20260504231516 | 23 | 251 | 1.6 | 6.4 | 0.00 | 0.00 | 0.00 | 39 | 1014.0 |
| 20260504230517 | 24 | 249 | 3.2 | 12.9 | 0.00 | 0.00 | 0.00 | 38 | 1013.9 |
| 20260504225516 | 24 | 245 | 1.6 | 6.4 | 0.00 | 0.00 | 0.00 | 39 | 1013.9 |
| 20260504224516 | 25 | 244 | 3.2 | 8.0 | 0.00 | 0.00 | 0.00 | 37 | 1013.9 |
| 20260504223557 | 25 | 249 | 3.2 | 9.7 | 0.00 | 0.00 | 0.00 | 37 | 1013.8 |
| 20260504222517 | 25 | 241 | 3.2 | 11.3 | 0.00 | 0.00 | 0.00 | 37 | 1013.8 |
| 20260504221518 | 26 | 246 | 4.8 | 11.3 | 0.00 | 0.00 | 0.00 | 36 | 1013.7 |
| 20260504220537 | 26 | 239 | 3.2 | 8.0 | 0.00 | 0.00 | 0.00 | 35 | 1013.8 |
| 20260504215537 | 26 | 243 | 4.8 | 12.9 | 0.00 | 0.00 | 0.00 | 35 | 1013.6 |
| 20260504214517 | 26 | 238 | 4.8 | 16.1 | 0.00 | 0.00 | 0.00 | 35 | 1013.5 |
| 20260504213517 | 26 | 241 | 3.2 | 9.7 | 0.00 | 0.00 | 0.00 | 33 | 1013.5 |
| 20260504212538 | 26 | 256 | 3.2 | 8.0 | 0.00 | 0.00 | 0.00 | 33 | 1013.6 |
| 20260504211518 | 26 | 234 | 3.2 | 14.5 | 0.00 | 0.00 | 0.00 | 32 | 1013.5 |
| 20260504210515 | 26 | 253 | 6.4 | 14.5 | 0.00 | 0.00 | 0.00 | 31 | 1013.6 |
| 20260504205515 | 26 | 236 | 3.2 | 9.7 | 0.00 | 0.00 | 0.00 | 31 | 1013.6 |
| 20260504204515 | 27 | 247 | 4.8 | 16.1 | 0.00 | 0.00 | 0.00 | 31 | 1013.6 |
| 20260504203516 | 27 | 230 | 3.2 | 8.0 | 0.00 | 0.00 | 0.00 | 31 | 1013.7 |
| 20260504202516 | 27 | 218 | 3.2 | 11.3 | 0.00 | 0.00 | 0.00 | 31 | 1013.8 |
| 20260504201516 | 27 | 246 | 4.8 | 12.9 | 0.00 | 0.00 | 0.00 | 30 | 1014.0 |
| 20260504200516 | 26 | 249 | 3.2 | 9.7 | 0.00 | 0.00 | 0.00 | 31 | 1013.9 |
| 20260504195516 | 26 | 252 | 4.8 | 14.5 | 0.00 | 0.00 | 0.00 | 31 | 1014.0 |
| 20260504194516 | 26 | 233 | 3.2 | 11.3 | 0.00 | 0.00 | 0.00 | 31 | 1013.9 |
| 20260504193517 | 26 | 243 | 4.8 | 12.9 | 0.00 | 0.00 | 0.00 | 31 | 1014.0 |
| 20260504192516 | 26 | 253 | 3.2 | 9.7 | 0.00 | 0.00 | 0.00 | 31 | 1014.2 |
| 20260504191517 | 26 | 243 | 3.2 | 9.7 | 0.00 | 0.00 | 0.00 | 34 | 1014.3 |
| 20260504190517 | 26 | 247 | 6.4 | 12.9 | 0.00 | 0.00 | 0.00 | 33 | 1014.6 |
| 20260504185518 | 26 | 229 | 3.2 | 8.0 | 0.00 | 0.00 | 0.00 | 35 | 1014.5 |
| 20260504184538 | 26 | 227 | 4.8 | 14.5 | 0.00 | 0.00 | 0.00 | 34 | 1014.5 |
| 20260504183538 | 25 | 239 | 6.4 | 11.3 | 0.00 | 0.00 | 0.00 | 33 | 1014.6 |
| 20260504182538 | 25 | 247 | 6.4 | 14.5 | 0.00 | 0.00 | 0.00 | 35 | 1014.7 |
| 20260504181518 | 25 | 246 | 6.4 | 12.9 | 0.00 | 0.00 | 0.00 | 35 | 1014.8 |
| 20260504180515 | 25 | 233 | 3.2 | 12.9 | 0.00 | 0.00 | 0.00 | 36 | 1014.7 |
| 20260504175515 | 25 | 241 | 4.8 | 11.3 | 0.00 | 0.00 | 0.00 | 36 | 1014.9 |
| 20260504174516 | 25 | 244 | 6.4 | 16.1 | 0.00 | 0.00 | 0.00 | 37 | 1015.1 |
| 20260504173516 | 24 | 250 | 3.2 | 8.0 | 0.00 | 0.00 | 0.00 | 39 | 1015.2 |
| 20260504172516 | 24 | 254 | 6.4 | 14.5 | 0.00 | 0.00 | 0.00 | 38 | 1015.4 |
| 20260504171515 | 23 | 333 | 3.2 | 8.0 | 0.00 | 0.00 | 0.00 | 39 | 1015.5 |
| 20260504170516 | 24 | 248 | 6.4 | 14.5 | 0.00 | 0.00 | 0.00 | 39 | 1015.5 |
| 20260504150538 | 20 | 249 | 3.2 | 11.3 | 0.00 | 0.00 | 0.00 | 53 | 1016.5 |
| 20260504140516 | 17 | 272 | 1.6 | 6.4 | 0.00 | 0.00 | 0.00 | 65 | 1016.6 |
| 20260504130537 | 15 | 273 | 3.2 | 9.7 | 0.00 | 0.00 | 0.00 | 74 | 1017.1 |
| 20260504110536 | 7 | 64 | 0.0 | 1.6 | 0.00 | 0.00 | 0.00 | 96 | 1017.8 |
| 20260504100516 | 6 | 51 | 0.0 | 0.0 | 0.00 | 0.03 | 0.00 | 95 | 1017.9 |
| 20260504081518 | 7 | 106 | 0.0 | 0.0 | 0.00 | 0.03 | 0.00 | 90 | 1017.8 |
| 20260504080515 | 7 | 0.0 | 0.0 | 0.00 | 0.03 | 0.00 | 89 | 1017.8 | |
| 20260504050518 | 6 | 104 | 0.0 | 0.0 | 0.00 | 0.03 | 0.00 | 89 | 1018.3 |
| 20260504045518 | 6 | 46 | 0.0 | 1.6 | 0.00 | 0.03 | 0.00 | 88 | 1018.4 |
| 20260504044515 | 6 | 0.0 | 0.0 | 0.00 | 0.03 | 0.00 | 87 | 1018.4 | |
| 20260504043535 | 6 | 348 | 0.0 | 1.6 | 0.00 | 0.03 | 0.00 | 86 | 1018.4 |
| 20260504042515 | 6 | 12 | 0.0 | 1.6 | 0.00 | 0.03 | 0.00 | 86 | 1018.4 |